Tracking 31027 objects as of 19-Jul-2025
HD Live streaming from Space Station
objects crossing your sky now

CZ-3B DEB

Track CZ-3B DEB now!


NORAD ID: 40814
Int'l Code: 2010-042X
Perigee: 867.6 km
Apogee: 41,385.7 km
Inclination: 26.5 °
Period: 756.3 minutes
Semi major axis: 27497 km
RCS: Unknown
Launch date: September 4, 2010
Source: People's Republic of China (PRC)
Launch site: Xichang Space Center, China (XSC)

Note: This is SATELLITE DEBRIS
Your satellite tracking list
FENGYUN 1C DEB
Track 1 satellite(s)




NASA's NSSDC Master Catalog

Two Line Element Set (TLE):
1 40814U 10042X   25193.28106106 -.00000035  00000-0 -10622-2 0  9991
2 40814  26.5456 248.4464 7367569   9.6615 359.2137  1.90396776 74299
Source of the keplerian elements: AFSPC